www.pogodaiklimat.ru

Погода и климат >> Архив погоды >> Франция >> Крей


ПОГОДА в Крее

  • Прогноз погоды в Крее
  • Монитор погоды в Крее

АРХИВ ПОГОДЫ в Крее

Время (UTC), дата Ветер
(напр.,м/с)
 
Видим.   Явления Облачность Т
(С)
Тd
(С)
f
(%)
Тe
(С)
Тes
(С)
Комфортность P
(гПа)
Po
(гПа)
Тmin
(С)
Tmax
(С)
R
(мм)
R24
(мм)
S
(см)
13 9.06 Ю 1 20 км н/о +16.9 +10.7 67 +18 +18 1020.2 1009.7
14 9.06 ЮВ 1 15 км н/о +17.5 +10.8 65 +19 +19 1019.7 1009.3
15 9.06 В 1
{5}
19 км н/о +18.0 +9.3 57 +19 +19 1019.0 1008.6
16 9.06 СВ 1 20 км н/о +17.4 +10.7 65 +18 +18 1018.6 1008.2
17 9.06 СВ 1 20 км н/о +16.4 +11.8 74 +17 +17 1018.1 1007.7
18 9.06 С 1
{3}
20 км н/о +16.4 +11.8 74 +17 +17 1017.7 1007.3 +11.2 +18.2
19 9.06 С 1 20 км н/о +15.8 +11.2 74 +16 +16 1017.7 1007.2
20 9.06 СВ 1 20 км н/о +13.3 +11.0 86 +14 +14 1017.5 1006.9
21 9.06 СВ 1
{3}
20 км н/о +11.9 +10.3 90 +12 +12 1017.5 1006.9
22 9.06 С 1 20 км н/о +11.9 +10.6 92 +13 +13 1017.2 1006.6
23 9.06 С 1 20 км н/о +11.8 +10.5 92 +12 +12 1016.7 1006.1
00 10.06 СВ 1
{3}
20 км н/о +12.5 +11.4 93 +13 +13 1016.4 1005.8
01 10.06 СВ 1 19 км н/о +12.3 +11.5 95 +12 +12 1015.6 1005.0 0.4
02 10.06 С 1 12 км н/о +11.9 +11.3 96 +12 +12 1015.0 1004.4
03 10.06 З 2
{8}
12 км н/о +12.1 +11.6 97 +11 +11 1014.8 1004.2 0.6
04 10.06 штиль 0 9000 м н/о +12.0 +11.5 97 +11 +11 1014.5 1003.9
05 10.06 ЮВ 1 7000 м н/о +12.0 +11.7 98 +13 +13 1014.3 1003.7
06 10.06 З 1
{2}
8000 м н/о +13.4 +12.9 97 +14 +14 1013.7 1003.2 +11.7 +16.4 0.6
07 10.06 З 1 15 км н/о +15.0 +12.7 86 +15 +15 1013.5 1003.1
08 10.06 З 2 18 км н/о +15.9 +12.8 82 +16 +16 1013.4 1003.0
09 10.06 З 3
{7}
20 км н/о +16.5 +12.3 76 +16 +16 1013.1 1002.7
10 10.06 ЮЗ 3 19 км н/о +18.2 +12.2 68 +19 +19 1013.1 1002.8
11 10.06 ЮЗ 2 20 км н/о +17.1 +11.4 69 +17 +17 1012.8 1002.4 0.0
12 10.06 ЮЗ 2
{7}
20 км н/о +17.7 +11.3 66 +18 +18 1012.5 1002.2 0.0
13 10.06 З 4 19 км н/о +17.9 +11.9 68 +18 +18 1012.1 1001.8
14 10.06 ЮЗ 5 19 км н/о +17.5 +10.6 64 +17 +17 1012.1 1001.8
15 10.06 З 4
{13}
20 км н/о +15.7 +10.2 70 +15 +15 1012.9 1002.5
16 10.06 З 4 20 км н/о +14.6 +8.5 67 +14 +14 1012.9 1002.4
17 10.06 З 3 20 км н/о +14.1 +9.5 74 +13 +13 1013.0 1002.5
18 10.06 З 3
{8}
20 км н/о +14.0 +8.2 68 +13 +13 1012.6 1002.1 +13.4 +18.5
19 10.06 З 2 20 км н/о +14.3 +9.3 72 +14 +14 1012.7 1002.2
20 10.06 ЮЗ 2 20 км н/о +12.2 +8.8 80 +11 +11 1013.2 1002.6
21 10.06 ЮЗ 1
{5}
20 км н/о +10.8 +8.2 84 +11 +11 1013.4 1002.8
22 10.06 ЮЗ 1 20 км н/о +9.5 +8.3 92 +10 +10 1013.3 1002.6
23 10.06 ЮЗ 1 20 км н/о +9.0 +7.9 93 +9 +9 1013.3 1002.6
00 11.06 штиль 0
{1}
20 км н/о +8.0 +7.6 97 +7 +7 1012.8 1002.1
01 11.06 ЮВ 1 20 км н/о +7.2 +6.6 96 +7 +7 1012.7 1002.0
02 11.06 штиль 0 18 км н/о +6.5 +6.1 97 +5 +5 1012.4 1001.6
03 11.06 штиль 0
{3}
19 км н/о +6.1 +5.7 97 +5 +5 1012.3 1001.5
04 11.06 В 1 16 км н/о +6.1 +6.0 99 +6 +6 1012.6 1001.8
05 11.06 штиль 0 15 км н/о +7.4 +7.4 100 +6 +6 1012.6 1001.9
06 11.06 ЮВ 1
{3}
19 км н/о +10.2 +10.0 99 +10 +10 1012.2 1001.6 +5.3 +14.3
07 11.06 ЮВ 1 20 км н/о +13.0 +9.4 79 +13 +13 1012.0 1001.5
08 11.06 ЮВ 1 19 км н/о +14.1 +9.1 72 +14 +14 1012.1 1001.6
09 11.06 ЮВ 1
{5}
20 км н/о +15.1 +9.5 69 +16 +16 1012.0 1001.6
10 11.06 В 2 20 км н/о +16.6 +8.0 57 +17 +17 1012.1 1001.7
11 11.06 Ю 2 19 км н/о +17.1 +7.2 52 +18 +18 1012.0 1001.6
12 11.06 Ю 1
{4}
19 км н/о +16.9 +6.7 51 +18 +18 1011.8 1001.4
13 11.06 В 1 20 км н/о +17.6 +8.7 56 +19 +19 1011.4 1001.1
14 11.06 ЮВ 1 20 км н/о +18.4 +7.8 50 +20 +20 1011.0 1000.7
15 11.06 ЮВ 1
{4}
12 км слаб. дождь н/о +17.1 +7.4 53 +18 +18 1011.1 1000.7 0.2
16 11.06 Ю 2 20 км н/о +16.7 +9.4 62 +17 +17 1010.9 1000.5 0.2
17 11.06 Ю 1 20 км н/о +17.0 +9.9 63 +19 +19 1010.9 1000.5
18 11.06 ЮЗ 2
{7}
20 км н/о +15.9 +10.2 69 +16 +16 1011.1 1000.7 +10.3 +19.8 0.2
19 11.06 ЮЗ 1 20 км н/о +13.6 +10.6 82 +14 +14 1011.7 1001.2 0.0
20 11.06 З 1 20 км дождь н/о +12.6 +11.0 90 +13 +13 1011.8 1001.3 0.0
21 11.06 Ю 1
{3}
4700 м сильн. дождь н/о +12.0 +10.7 92 +12 +12 1011.7 1001.2 3
22 11.06 ЮВ 1 9000 м дождь н/о +11.5 +10.9 96 +12 +12 1011.3 1000.7
23 11.06 В 1 14 км слаб. дождь н/о +11.3 +10.0 92 +12 +12 1011.1 1000.5 0.6
00 12.06 В 1
{2}
20 км н/о +11.1 +10.3 95 +11 +11 1010.5 999.9 0.8
01 12.06 В 1 20 км н/о +11.0 +10.5 97 +11 +11 1010.5 999.9 0.2
02 12.06 штиль 0 20 км н/о +10.9 +10.6 98 +10 +10 1009.9 999.3 0.0
03 12.06 В 1
{2}
20 км н/о +10.8 +10.5 98 +11 +11 1009.7 999.1 0.2
04 12.06 В 1 19 км н/о +10.7 +10.4 98 +10 +10 1009.8 999.2
05 12.06 ЮВ 1 16 км н/о +11.2 +10.9 98 +12 +12 1009.6 999.1
06 12.06 Ю 1
{2}
10 км н/о +11.7 +11.4 98 +12 +12 1009.5 999.0 +10.7 +15.8
07 12.06 Ю 2 12 км н/о +11.7 +11.1 96 +11 +11 1009.9 999.4
08 12.06 Ю 2 11 км н/о +11.9 +11.1 95 +11 +11 1009.9 999.4
09 12.06 Ю 2
{6}
17 км н/о +13.5 +11.5 88 +13 +13 1009.8 999.3
10 12.06 Ю 2 20 км н/о +15.7 +11.3 75 +16 +16 1009.7 999.3
11 12.06 Ю 3 20 км н/о +16.4 +10.0 66 +16 +16 1009.5 999.1
12 12.06 Ю 2
{9}
20 км н/о +16.3 +9.0 62 +17 +17 1009.4 999.0
13 12.06 Ю 3 10 км сильн. дождь н/о +15.2 +10.4 73 +15 +15 1009.6 999.2 0.4
14 12.06 Ю 2 11 км слаб. дождь н/о +13.3 +11.4 88 +13 +13 1009.8 999.3 3
15 12.06 ЮЗ 1
{5}
20 км н/о +15.7 +12.6 82 +16 +16 1009.1 998.7 5
16 12.06 Ю 2 20 км н/о +15.5 +11.3 76 +16 +16 1008.9 998.5 0.0
17 12.06 Ю 2 20 км н/о +13.9 +11.9 88 +14 +14 1008.6 998.2 2
18 12.06 Ю 2
{6}
20 км н/о +14.0 +12.4 90 +14 +14 1009.0 998.6 +11.5 +17.1 2
19 12.06 Ю 2 20 км н/о +13.7 +11.9 89 +13 +13 1008.9 998.5 0.0
20 12.06 Ю 2 20 км н/о +12.6 +11.5 93 +12 +12 1009.6 999.1
21 12.06 Ю 2
{5}
20 км н/о +12.8 +11.2 90 +12 +12 1009.9 999.4 0.0
22 12.06 Ю 2 20 км н/о +12.0 +10.6 91 +11 +11 1010.3 999.8
23 12.06 Ю 2 20 км н/о +11.3 +10.0 92 +10 +10 1010.5 999.9
00 13.06 Ю 3
{8}
20 км н/о +10.9 +9.8 93 +9 +9 1010.8 1000.2
01 13.06 Ю 2 20 км н/о +10.5 +9.6 94 +9 +9 1010.9 1000.3
02 13.06 Ю 2 20 км н/о +10.3 +9.2 93 +9 +9 1011.0 1000.4
03 13.06 Ю 2
{7}
20 км н/о +9.8 +9.0 95 +8 +8 1011.0 1000.4 0.2
04 13.06 Ю 2 20 км н/о +9.5 +8.9 96 +8 +8 1011.2 1000.6
05 13.06 Ю 2 17 км н/о +10.4 +9.9 97 +9 +9 1011.5 1000.9
06 13.06 Ю 2
{7}
19 км н/о +11.4 +10.3 93 +10 +10 1011.7 1001.1 +9.5 +14.0 0.2
07 13.06 Ю 3 19 км н/о +12.7 +10.6 87 +11 +11 1011.8 1001.3
08 13.06 Ю 3 20 км слаб. дождь н/о +13.3 +10.8 85 +12 +12 1011.9 1001.4 0.0
09 13.06 Ю 2
{7}
16 км слаб. дождь н/о +12.8 +11.0 89 +12 +12 1012.1 1001.6 0.4
10 13.06 Ю 2 20 км н/о +13.3 +12.2 93 +13 +13 1012.2 1001.7 0.6
11 13.06 Ю 3 19 км н/о +16.2 +12.6 79 +16 +16 1011.6 1001.2
12 13.06 Ю 3
{11}
20 км н/о +16.8 +10.6 67 +17 +17 1011.5 1001.1 0.6
13 13.06 Ю 4 20 км н/о +18.4 +10.0 58 +19 +19 1011.4 1001.1
14 13.06 Ю 4 20 км н/о +19.5 +9.9 54 +21 +21 комфорт 1011.1 1000.8
15 13.06 Ю 3
{13}
20 км н/о +19.5 +11.3 59 +21 +21 комфорт 1010.5 1000.2
16 13.06 Ю 3 20 км н/о +19.2 +10.7 58 +21 +21 комфорт 1010.7 1000.4
17 13.06 Ю 3 20 км н/о +19.1 +10.4 57 +20 +20 1010.6 1000.3
18 13.06 Ю 2
{9}
20 км н/о +17.8 +11.6 67 +18 +18 1010.9 1000.6 +11.4 +20.2
19 13.06 ЮЗ 2 20 км н/о +18.0 +11.8 67 +19 +19 1011.3 1001.0
20 13.06 Ю 1 20 км н/о +16.0 +12.0 77 +17 +17 1011.8 1001.4
21 13.06 Ю 1
{3}
20 км н/о +13.9 +11.6 86 +14 +14 1012.5 1002.0
22 13.06 З 1 20 км н/о +11.9 +10.5 91 +13 +13 1012.7 1002.1
23 13.06 В 1 20 км н/о +11.1 +10.2 94 +12 +12 1012.7 1002.1
00 14.06 штиль 0
{1}
20 км н/о +10.7 +10.2 97 +10 +10 1012.4 1001.8
01 14.06 ЮЗ 1 20 км н/о +10.9 +10.6 98 +11 +11 1012.4 1001.8
02 14.06 З 1 20 км н/о +11.6 +11.1 97 +12 +12 1012.5 1001.9
03 14.06 Ю 2
{5}
20 км н/о +12.2 +11.3 94 +11 +11 1013.5 1002.9
04 14.06 Ю 1 20 км н/о +12.5 +11.4 93 +12 +12 1013.0 1002.5 0.0
05 14.06 Ю 2 20 км н/о +12.9 +11.5 91 +12 +12 1012.5 1002.0
06 14.06 штиль 0
{3}
20 км н/о +13.5 +12.4 93 +13 +13 1012.7 1002.2 +10.3 +18.9 0.2
07 14.06 З 2 20 км н/о +15.9 +10.6 71 +16 +16 1013.5 1003.1
08 14.06 ЮЗ 1 20 км н/о +17.6 +11.4 67 +19 +19 1013.7 1003.3
09 14.06 ЮЗ 1
{5}
20 км н/о +18.4 +10.0 58 +20 +20 1014.0 1003.7
10 14.06 Ю 2 20 км н/о +19.1 +10.6 58 +21 +21 комфорт 1014.5 1004.2
11 14.06 ЮЗ 2 18 км н/о +20.8 +12.0 57 +24 +24 комфорт 1014.0 1003.8
12 14.06 Ю 2
{6}
19 км н/о +20.7 +12.9 61 +24 +24 комфорт 1014.1 1003.9
13 14.06 ЮЗ 2 19 км н/о +21.8 +12.1 54 +24 +24 комфорт 1013.2 1003.0
14 14.06 Ю 2 19 км н/о +22.3 +13.1 56 +25 +25 комфорт 1012.7 1002.5
15 14.06 Ю 1
{5}
20 км н/о +22.9 +12.8 53 +26 +26 жарко 1012.2 1002.0
16 14.06 ЮВ 1 19 км н/о +23.2 +12.5 51 +26 +26 жарко 1011.4 1001.3
17 14.06 В 1 19 км н/о +22.6 +12.8 54 +25 +25 комфорт 1011.4 1001.2
18 14.06 В 1
{5}
20 км н/о +21.5 +12.9 58 +24 +24 комфорт 1011.5 1001.3 +13.5 +23.9
19 14.06 В 1 20 км н/о +20.6 +14.0 66 +25 +25 комфорт 1011.6 1001.4
20 14.06 В 1 20 км н/о +18.9 +15.2 79 +22 +22 комфорт 1011.6 1001.3
21 14.06 штиль 0
{1}
18 км н/о +18.3 +13.8 75 +19 +19 1011.7 1001.4
22 14.06 В 1 20 км н/о +18.2 +14.5 79 +20 +20 1011.3 1001.0
23 14.06 З 1 20 км н/о +17.7 +15.0 84 +19 +19 1011.6 1001.3
00 15.06 СЗ 1
{5}
10 км слаб. дождь н/о +16.2 +14.7 91 +17 +17 1011.9 1001.5 2
01 15.06 З 1 10 км н/о +15.7 +15.1 96 +17 +17 1011.9 1001.5 1
02 15.06 ЮЗ 2 18 км слаб. дождь н/о +15.1 +14.0 93 +15 +15 1012.2 1001.8 0.2
03 15.06 Ю 1
{3}
20 км н/о +14.8 +14.0 95 +15 +15 1012.4 1002.0 2
04 15.06 ЮЗ 1 20 км н/о +14.2 +13.7 97 +15 +15 1013.0 1002.5
05 15.06 ЮЗ 1 20 км н/о +14.5 +13.0 91 +15 +15 1013.4 1002.9
06 15.06 ЮЗ 2
{5}
20 км н/о +15.4 +13.4 88 +16 +16 1013.7 1003.3 +13.9 +21.5 3
07 15.06 ЮЗ 2 19 км н/о +16.2 +13.1 82 +16 +16 1014.4 1004.0
08 15.06 ЮЗ 3 20 км н/о +18.2 +12.6 70 +19 +19 1014.8 1004.5
09 15.06 З 3
{9}
19 км н/о +19.3 +13.0 67 +21 +21 комфорт 1015.3 1005.0
10 15.06 З 3 19 км н/о +19.6 +10.8 57 +21 +21 комфорт 1015.7 1005.4
11 15.06 З 3 20 км н/о +20.5 +9.7 50 +22 +22 комфорт 1015.8 1005.5
12 15.06 ЮЗ 3
{10}
20 км н/о +20.4 +7.7 44 +22 +22 комфорт 1016.3 1006.0
13 15.06 З 3 20 км н/о +21.1 +9.0 46 +22 +22 комфорт 1016.2 1005.9
14 15.06 ЮЗ 3 20 км н/о +21.7 +10.2 48 +23 +23 комфорт 1016.1 1005.9
15 15.06 З 3
{9}
19 км н/о +21.4 +8.6 44 +23 +23 комфорт 1016.4 1006.1
16 15.06 ЮЗ 3 20 км н/о +20.3 +8.9 48 +22 +22 комфорт 1016.4 1006.1
17 15.06 ЮЗ 3 20 км н/о +20.8 +9.1 47 +23 +23 комфорт 1016.4 1006.1
18 15.06 З 3
{10}
20 км н/о +19.7 +9.6 52 +21 +21 комфорт 1016.7 1006.4 +15.0 +22.5
19 15.06 ЮЗ 3 20 км н/о +19.0 +7.7 48 +20 +20 1017.2 1006.8
20 15.06 ЮЗ 2 20 км н/о +16.7 +8.4 58 +17 +17 1017.6 1007.2
21 15.06 Ю 2
{5}
20 км н/о +16.2 +8.9 62 +17 +17 1018.2 1007.7
22 15.06 Ю 2 20 км н/о +15.0 +9.6 70 +15 +15 1018.5 1008.0
23 15.06 ЮЗ 2 20 км н/о +15.0 +9.8 71 +15 +15 1018.8 1008.3
00 16.06 ЮЗ 2
{6}
20 км н/о +14.3 +10.5 78 +14 +14 1019.1 1008.6
01 16.06 Ю 2 20 км н/о +13.5 +10.8 84 +13 +13 1019.2 1008.6
02 16.06 Ю 2 20 км н/о +12.8 +10.9 88 +12 +12 1019.4 1008.8
03 16.06 Ю 2
{5}
20 км н/о +12.8 +11.0 89 +12 +12 1019.4 1008.8
04 16.06 Ю 2 20 км н/о +12.8 +11.2 90 +12 +12 1019.8 1009.2
05 16.06 Ю 2 20 км н/о +13.5 +11.7 89 +13 +13 1020.2 1009.6
06 16.06 ЮЗ 3
{8}
20 км н/о +15.3 +12.4 83 +15 +15 1020.6 1010.1 +12.4 +19.9
07 16.06 ЮЗ 3 20 км н/о +16.2 +12.4 78 +16 +16 1021.2 1010.7
08 16.06 ЮЗ 2 19 км н/о +17.1 +12.2 73 +17 +17 1021.4 1010.9
09 16.06 ЮЗ 2
{7}
19 км н/о +18.5 +12.3 67 +20 +20 1021.2 1010.8
10 16.06 Ю 2 20 км н/о +18.3 +12.9 71 +19 +19 1021.4 1011.0
11 16.06 ЮЗ 1 20 км н/о +19.1 +12.1 64 +21 +21 комфорт 1021.4 1011.0
12 16.06 Ю 2
{7}
20 км н/о +19.1 +11.9 63 +21 +21 комфорт 1021.4 1011.0
13 16.06 ЮЗ 2 20 км н/о +20.0 +12.7 63 +22 +22 комфорт 1021.3 1011.0
14 16.06 З 3 20 км н/о +21.2 +13.4 61 +24 +24 комфорт 1021.1 1010.8

 

Местоположение метеостанции Крей (Франция): широта 49.25 долгота 2.52 высота над уровнем моря 88 м.

В архиве по умолчанию представлена погода в Крее за последнюю неделю. Архивные данные за месяц целиком и за предыдущие месяцы, начиная с января 2011 года, Вы можете получить, выбрав интересующий диапазон дат из раскрывающегося списка и нажав кнопку "Ввод!".


*Определитесь, кто Вы:
робот инопланетянин человек

Внимание! Время в таблицах - всемирное. Для получения местного времени необходимо прибавить поправку, которая равна 1 ч.

Смотрите также архив погоды в соседних городах и на ближайших метеорологических станциях:

Погода в Аэропорту Шарль де Голль (Франция) (26 км)
Погода в Ле-Бурже (Франция) (32 км)
Погода в Бове (Франция) (38 км)
Погода в Кормее (Франция) (40 км)
Погода в Париже (Франция) (50 км)
Погода в Велизи-Вилакубле (Франция) (58 км)
Погода в Париж Орли аэропорту (Франция) (60 км)
Погода в Трапе (Франция) (65 км)
Погода в Мелене (Франция) (71 км)
Погода в Сен-Кантене (Франция) (80 км)

Пояснения к столбцам:

Ветер - указаны скорость ветра в м/с - средняя за 10 мин, порывы в срок и между сроками (в фигурных скобках) и направление, откуда дует ветер: С - северный, СВ - северо-восточный, В - восточный, ЮВ - юго-восточный, Ю - южный, ЮЗ - юго-западный, З - западный, СЗ - северо-западный.
Видимость - горизонтальная дальность видимости в метрах или километрах. При видимости от 1 до 10 км при отсутствии осадков обычно наблюдается дымка, при ухудшении видимости до 1 км и менее - туман. В сухую погоду видимость может ухудшаться дымом, пылью или мглою.
Явления - указаны атмосферные явления, наблюдавшиеся в срок или в последний час перед сроком; фигурными скобками обозначены явления, наблюдавшиеся между сроками (за 1-3 часа до срока); квадратными скобками обозначены град или гололедные отложения с указанием их диаметра в мм.
Облачность - указаны через наклонную черту общая и нижняя облачность в баллах и высота нижней границы облаков в метрах; квадратными скобками обозначены формы облаков: Ci - перистые, Cs - перисто-слоистые, Cc - перисто-кучевые, Ac - высококучевые, As - высокослоистые, Sc - слоисто-кучевые, Ns - слоисто-дождевые, Cu - кучевые, Cb - кучево-дождевые. Подробнее классификацию облаков см. в Атласе облаков (PDF).
T - Температура воздуха - температура, измеренная на высоте 2 м над землей.
Td - Температура точки росы - температура, при понижении до которой содержащийся в воздухе водяной пар достигнет насыщения.
f - Относительная влажность воздуха - влажноcть воздуха, измеренная на высоте 2 м над землей.
Te - Эффективная температура - температура, которую ощущает одетый по сезону человек в тени. Характеристика душности погоды. При расчете учитывается влияние влажности воздуха и скорости ветра на теплоощущения человека.
Tes - Эффективная температура на солнце - температура, которую ощущает человек, с поправкой на солнечный нагрев. Характеристика знойности погоды. Зависит от высоты солнца над горизонтом, облачности и скорости ветра. Ночью, в пасмурную погоду, а также при ветре 12 м/с и более поправка равна нулю.
P - Атмосферное давление - приведенное к уровню моря атмосферное давление.
Po - Атмосферное давление - измеренное на уровне метеостанции атмосферное давление.
Tmin - Минимальная температура - минимум температуры воздуха на высоте 2 м над землей.
Tmax - Максимальная температура - максимум температуры воздуха на высоте 2 м над землей.
R - Количество осадков - Количество выпавших осадков за период времени, мм. При наведении курсора мыши на число - период времени, за который выпало указанное количество осадков.
R24 - Количество осадков - Количество выпавших осадков за 24 часа, мм.
S - Снежный покров - Высота снежного покрова, см. При наведении курсора мыши на число - состояние снежного покрова и степень покрытия местности в баллах.